Weather in Veliky Kuchuro

Ukraine / Chernovtci District     48°12′51″N   25°54′27″E
temp.,
°C
wind,
m/s
gust,
m/s
humid.,
%
clouds,
%
prec.,
mm/h
press.,
hPa
HPBL,
m
12 august, fri
fri1200:00+15wnw22751 0.0 102016
03:00+13wnw228818 0.0 102039
06:00+14wnw3783100 0.0 1020183
09:00+18wnw467068 0.1 1020372
12:00+20nw587296 0.5 1019535
15:00+23nnw4568100 0.8 1018908
18:00+20n368586 3.1 1017268
21:00+17nw229493 3.9 101834
13 august, sat
sat1300:00+17wnw229569 0.0 101719
03:00+16wnw229616 0.0 101628
06:00+16wnw2497100 0.0 1015108
09:00+17wnw3795100 0.1 1014252
12:00+20nw5681100 0.0 1013623
15:00+25nnw456263 0.0 10111237
18:00+25n3461100 1.1 10101184
21:00+19w3490100 8.4 101069
14 august, sun
sun1400:00+18wnw3595100 3.1 1010123
03:00+17wnw4998100 3.4 1009229
06:00+17wnw3798100 0.1 1009249
09:00+19nw6892100 0.3 1009432
12:00+22nw5576100 0.0 1009792
15:00+26n3460100 0.0 10081246
18:00+25n346167 0.0 1008973
21:00+19sse2389100 2.7 100843
15 august, mon
mon1500:00+18wsw0091100 1.4 100811
03:00+17wsw1189100 1.4 100711
06:00+16wnw1190100 0.0 100711
09:00+20wnw2282100 0.0 1007190
12:00+24wnw2260100 0.0 1007680
15:00+28nnw1148100 0.0 10061233
18:00+28ese01485 0.0 10061326
21:00+18wsw227357 0.4 100721
16 august, tue
tue1600:00+18wsw227482 0.1 100811
03:00+17wnw22805 0.1 100712
06:00+16wsw21875 0.0 100711
09:00+22w22676 0.0 1008218
12:00+27wnw224549 0.0 1007861
15:00+31nne13375 0.0 10071806
18:00+24sse466530 0.6 1007104
21:00+20se228519 2.9 100920